User: anonymous   Login
Location: Buchdorf
(48.7842°N, 10.8275°E)
Time: 20:49:56
(UTC+00:00)
Language:

STARLINK-1187 - Orbit

View from above orbital plane
View from above orbital plane
View from above satellite
View from above satellite

Ground track
Ground track

The orbit data is extracted from the following two-line orbital elements,

1 45219U 20012AT  20185.66668981 -.00011875  00000-0 -78270-3 0  9993
2 45219  53.0014 321.7178 0001931  98.6351 103.7709 15.06251965 21719
Epoch (UTC): 03 July 2020 16:00:02
Eccentricity: 0.0001931
inclination: 53.0014°
perigee height: 546 km
apogee height: 549 km
right ascension of ascending node: 321.7178°
argument of perigee: 98.6351°
revolutions per day: 15.06251965
mean anomaly at epoch: 103.7709°
orbit number at epoch: 2171

The dashed part of the orbit path shows where the satellite is in the earth's shadow,  

DLR